Weather History for KM40 - February, 2014

Change the Weather History Date:

Monday, February 24, 2014

  Actual Average (KCBM) Record (KCBM)
Temperature  
Mean Temperature 50 °F -  
Max Temperature 64 °F 58 °F 77 °F (2011)
Min Temperature 37 °F 40 °F 28 °F (1999)
Degree Days  
Heating Degree Days 14    
Moisture  
Dew Point 36 °F    
Average Humidity 57    
Maximum Humidity 65    
Minimum Humidity 52    
Precipitation  
Precipitation 0.00 in - - ()
Sea Level Pressure  
Sea Level Pressure 30.17 in    
Wind  
Wind Speed 8 mph (North)    
Max Wind Speed 14 mph    
Max Gust Speed -    
Visibility 9 miles    
Events      
Averages and records for this station are not official NWS values.
T = Trace of Precipitation, MM = Missing Value Source: NWS Daily Summary

Daily Weather History Graph

Daily Weather History Graph

Search for Another Location

Airport or City:

Trip Planner

Search our weather history database for the weather conditions in past years. The results will help you decide how hot, cold, wet, or windy it might be!

Date:

Astronomy

Feb. 24, 2014 Rise Set
Actual Time 6:28 AM CST 5:46 PM CST
Civil Twilight 6:03 AM CST 6:11 PM CST
Nautical Twilight 5:34 AM CST 6:40 PM CST
Astronomical Twilight 5:05 AM CST 7:09 PM CST
Moon 2:18 AM CST (2/24) 12:55 PM CST (2/24)
Length of Visible Light 12h 08m
Length of Day
11h 17m
Waning Crescent, 28% of the Moon is Illuminated
Feb 24
Waning Crescent
Mar 1
New
Mar 8
First Quarter
Mar 16
Full
Mar 23
Last Quarter

Hourly Weather History & Observations

Time (CST) Temp. Windchill Dew Point Humidity Pressure Visibility Wind Dir Wind Speed Gust Speed Precip Events Conditions
12:15 AM 50.0 °F - 35.6 °F 58% 30.11 in 10.0 mi North 9.2 mph - N/A   Scattered Clouds
12:35 AM 50.0 °F - 33.8 °F 54% 30.11 in 9.0 mi North 9.2 mph - N/A   Partly Cloudy
12:55 AM 48.2 °F - 33.8 °F 58% 30.12 in 9.0 mi NNW 9.2 mph - N/A   Partly Cloudy
1:15 AM 48.2 °F - 32.0 °F 54% 30.12 in 9.0 mi North 9.2 mph - N/A   Partly Cloudy
1:35 AM 48.2 °F - 32.0 °F 54% 30.13 in 9.0 mi North 9.2 mph - N/A   Partly Cloudy
1:55 AM 46.4 °F 41.1 °F 32.0 °F 57% 30.13 in 10.0 mi North 11.5 mph - N/A   Clear
2:15 AM 46.4 °F 41.9 °F 32.0 °F 57% 30.14 in 9.0 mi North 9.2 mph - N/A   Clear
2:35 AM 46.4 °F 41.9 °F 32.0 °F 57% 30.15 in 9.0 mi North 9.2 mph - N/A   Clear
2:55 AM 46.4 °F 40.4 °F 32.0 °F 57% 30.16 in 9.0 mi North 13.8 mph - N/A   Scattered Clouds
3:15 AM 46.4 °F 41.1 °F 32.0 °F 57% 30.16 in 9.0 mi North 11.5 mph - N/A   Mostly Cloudy
3:35 AM 46.4 °F 41.9 °F 32.0 °F 57% 30.17 in 9.0 mi North 9.2 mph - N/A   Overcast
3:55 AM 46.4 °F 41.9 °F 32.0 °F 57% 30.17 in 8.0 mi North 9.2 mph - N/A   Overcast
4:15 AM 44.6 °F 40.2 °F 32.0 °F 61% 30.18 in 8.0 mi North 8.1 mph - N/A   Mostly Cloudy
4:35 AM 44.6 °F 38.8 °F 30.2 °F 57% 30.18 in 9.0 mi NNE 11.5 mph - N/A   Clear
4:55 AM 42.8 °F 37.5 °F 30.2 °F 61% 30.19 in 9.0 mi North 9.2 mph - N/A   Clear
5:15 AM 42.8 °F 38.6 °F 28.4 °F 57% 30.20 in 9.0 mi North 6.9 mph - N/A   Clear
5:35 AM 42.8 °F 38.6 °F 28.4 °F 57% 30.21 in 9.0 mi North 6.9 mph - N/A   Clear
5:55 AM 41.0 °F 36.4 °F 28.4 °F 61% 30.21 in 9.0 mi North 6.9 mph - N/A   Clear
6:15 AM 39.2 °F 35.9 °F 26.6 °F 61% 30.22 in 8.0 mi NW 4.6 mph - N/A   Clear
6:35 AM 37.4 °F 33.8 °F 24.8 °F 60% 30.23 in 9.0 mi NNW 4.6 mph - N/A   Clear
6:55 AM 37.4 °F 33.8 °F 23.0 °F 56% 30.22 in 7.0 mi North 4.6 mph - N/A   Clear
7:15 AM 37.4 °F 33.8 °F 24.8 °F 60% 30.21 in 8.0 mi NE 4.6 mph - N/A   Clear
7:35 AM 39.2 °F 37.0 °F 28.4 °F 65% 30.21 in 7.0 mi NNE 3.5 mph - N/A   Clear
7:55 AM 42.8 °F 38.6 °F 28.4 °F 57% 30.21 in 8.0 mi North 6.9 mph - N/A   Clear
8:15 AM 44.6 °F 39.2 °F 30.2 °F 57% 30.23 in 7.0 mi North 10.4 mph - N/A   Clear
8:35 AM 44.6 °F 40.2 °F 32.0 °F 61% 30.23 in 8.0 mi North 8.1 mph - N/A   Clear
8:55 AM 46.4 °F 42.4 °F 32.0 °F 57% 30.24 in 8.0 mi NNE 8.1 mph - N/A   Clear
9:15 AM 48.2 °F - 32.0 °F 54% 30.25 in 8.0 mi North 11.5 mph - N/A   Clear
9:35 AM 48.2 °F - 33.8 °F 58% 30.26 in 8.0 mi NNE 8.1 mph - N/A   Clear
9:55 AM 50.0 °F - 35.6 °F 58% 30.26 in 8.0 mi NNE 10.4 mph - N/A   Clear
10:15 AM 51.8 °F - 35.6 °F 54% 30.25 in 9.0 mi NNE 10.4 mph - N/A   Clear
10:35 AM 53.6 °F - 37.4 °F 54% 30.24 in 6.0 mi NNE 9.2 mph - N/A   Haze
10:55 AM 55.4 °F - 39.2 °F 54% 30.24 in 5.0 mi North 8.1 mph - N/A   Haze
11:15 AM 55.4 °F - 39.2 °F 54% 30.24 in 5.0 mi North 9.2 mph - N/A   Haze
11:35 AM 57.2 °F - 41.0 °F 55% 30.24 in 7.0 mi North 9.2 mph - N/A   Clear
11:55 AM 57.2 °F - 42.8 °F 59% 30.23 in 8.0 mi North 5.8 mph - N/A   Clear
12:15 PM 60.8 °F - 44.6 °F 55% 30.22 in 7.0 mi NNE 9.2 mph - N/A   Clear
12:35 PM 60.8 °F - 44.6 °F 55% 30.21 in 9.0 mi North 6.9 mph - N/A   Clear
12:55 PM 62.6 °F - 46.4 °F 55% 30.20 in 8.0 mi NNE 6.9 mph - N/A   Clear
1:15 PM 60.8 °F - 44.6 °F 55% 30.19 in 9.0 mi North 6.9 mph - N/A   Clear
1:35 PM 62.6 °F - 46.4 °F 55% 30.19 in 7.0 mi NNW 9.2 mph - N/A   Clear
1:55 PM 62.6 °F - 46.4 °F 55% 30.18 in 9.0 mi NNE 5.8 mph - N/A   Clear
2:15 PM 64.4 °F - 46.4 °F 52% 30.17 in 10.0 mi NNW 6.9 mph - N/A   Clear
2:35 PM 64.4 °F - 48.2 °F 56% 30.16 in 8.0 mi NE 6.9 mph - N/A   Clear
2:55 PM 64.4 °F - 48.2 °F 56% 30.15 in 9.0 mi NNE 9.2 mph - N/A   Clear
3:15 PM 64.4 °F - 48.2 °F 56% 30.14 in 9.0 mi NNW 6.9 mph - N/A   Clear
3:35 PM 62.6 °F - 46.4 °F 55% 30.14 in 9.0 mi NNW 5.8 mph - N/A   Clear
3:55 PM 64.4 °F - 48.2 °F 56% 30.14 in 8.0 mi North 6.9 mph - N/A   Clear
4:15 PM 62.6 °F - 46.4 °F 55% 30.14 in 9.0 mi NNE 6.9 mph - N/A   Clear
4:35 PM 62.6 °F - 44.6 °F 52% 30.14 in 8.0 mi North 8.1 mph - N/A   Clear
4:55 PM 60.8 °F - 44.6 °F 55% 30.13 in 8.0 mi North 6.9 mph - N/A   Clear
5:15 PM 59.0 °F - 42.8 °F 55% 30.14 in 9.0 mi North 6.9 mph - N/A   Clear
5:35 PM 57.2 °F - 41.0 °F 55% 30.14 in 8.0 mi North 5.8 mph - N/A   Clear
5:55 PM 55.4 °F - 39.2 °F 54% 30.15 in 8.0 mi North 5.8 mph - N/A   Clear
6:15 PM 55.4 °F - 39.2 °F 54% 30.15 in 10.0 mi North 5.8 mph - N/A   Clear
6:35 PM 53.6 °F - 37.4 °F 54% 30.15 in 10.0 mi North 4.6 mph - N/A   Clear
6:55 PM 53.6 °F - 37.4 °F 54% 30.14 in 10.0 mi NNE 5.8 mph - N/A   Clear
7:15 PM 53.6 °F - 37.4 °F 54% 30.14 in 10.0 mi NE 5.8 mph - N/A   Clear
7:55 PM 51.8 °F - 35.6 °F 54% 30.14 in 9.0 mi NE 3.5 mph - N/A   Clear
8:15 PM 51.8 °F - 35.6 °F 54% 30.14 in 10.0 mi Calm Calm - N/A   Clear
8:35 PM 50.0 °F - 33.8 °F 54% 30.13 in 10.0 mi Calm Calm - N/A   Clear
8:55 PM 48.2 °F - 33.8 °F 58% 30.13 in 10.0 mi Calm Calm - N/A   Clear
9:15 PM 46.4 °F - 32.0 °F 57% 30.13 in 10.0 mi Calm Calm - N/A   Clear
9:35 PM 44.6 °F - 32.0 °F 61% 30.13 in 10.0 mi Calm Calm - N/A   Clear
9:55 PM 44.6 °F - 30.2 °F 57% 30.14 in 10.0 mi Calm Calm - N/A   Clear
10:15 PM 42.8 °F - 30.2 °F 61% 30.13 in 10.0 mi Calm Calm - N/A   Clear
10:35 PM 42.8 °F - 28.4 °F 57% 30.13 in 10.0 mi Calm Calm - N/A   Scattered Clouds
10:55 PM 42.8 °F - 30.2 °F 61% 30.12 in 10.0 mi Calm Calm - N/A   Mostly Cloudy
11:15 PM 42.8 °F - 30.2 °F 61% 30.12 in 10.0 mi Calm Calm - N/A   Partly Cloudy
11:35 PM 42.8 °F 41.1 °F 28.4 °F 57% 30.11 in 10.0 mi North 3.5 mph - N/A   Scattered Clouds
11:55 PM 42.8 °F 41.1 °F 30.2 °F 61% 30.11 in 10.0 mi NNE 3.5 mph - N/A   Mostly Cloudy